Location: B�ni
(14.8539°N, 2.9471°W)
Time: 17:15:51
(UTC+00:00)

Daily predictions for brighter satellites

Satellite Brightness Start Highest point End
(mag) Time Altitude Azimuth Time Altitude Azimuth Time Altitude Azimuth
Cosmos-2242 3.9 18:27:21 10° NNW 18:31:29 53° W 18:35:37 10° S
Okean-O 2.6 18:29:15 10° SSE 18:33:40 89° E 18:38:06 10° NNW
ASC 2 Rocket 3.5 18:28:10 10° WSW 18:33:45 60° SSE 18:37:57 10° E
Cosmos 1844 Rocket 4.3 18:32:08 10° SE 18:34:48 14° ESE 18:37:27 10° ENE
Cosmos 2058 3.6 18:32:23 10° SSE 18:36:03 32° E 18:39:44 10° NNE
YAOGAN 1 3.0 18:40:18 10° SE 18:44:19 39° ENE 18:48:21 10° N
GPS 2-14 Rocket1 3.3 18:41:21 10° W 18:44:59 42° N 18:48:09 13° ENE
Atlas Centaur 2 3.7 18:49:04 10° NNW 18:51:01 12° NNE 18:53:05 10° NE
Cosmos 1892 3.5 18:48:12 10° SSE 18:51:36 29° E 18:55:00 10° NNE
Meteor 1-27 4.3 18:49:46 10° N 18:55:12 54° E 19:00:43 10° SSE
ATLAS 3B R/B 2.8 18:51:18 10° S 18:57:59 55° ESE 19:04:29 10° NE
CSL-04 Debris 4.2 18:53:20 10° SSE 18:58:34 56° ENE 19:03:49 10° N
CZ-4 R/B 1.4 18:56:19 10° S 19:00:19 83° W 19:04:24 10° NNW
Cosmos 1452 Rocket 4.1 18:56:34 10° SSE 19:01:19 35° E 19:05:06 15° NE
Cosmos 1408 4.2 18:59:05 10° SE 19:00:51 17° ESE 19:00:51 17° ESE
Centaur AC-112 4.2 19:02:52 10° N 19:04:02 12° NNE 19:04:31 12° NNE
Cosmos 2251 Rocket 3.7 19:01:23 10° NNW 19:06:42 77° WSW 19:12:03 10° S
NOSS 3-2 (C) 4.0 19:01:31 10° SW 19:06:48 51° WNW 19:12:24 10° NNE
Cosmos 1766 Rocket 4.4 19:05:52 10° SSE 19:09:40 28° E 19:10:37 26° ENE
Cosmos 1727 Rocket 4.4 19:05:48 10° N 19:11:53 68° W 19:18:01 10° S
CENTAUR R/B 2.6 19:08:32 10° SW 19:13:49 64° WNW 19:19:43 10° NNE
SL-4 R/B 2.4 19:10:13 10° SW 19:15:02 81° NW 19:18:06 22° NNE
Sakura Rocket 2.5 19:11:59 10° WSW 19:15:52 71° SSE 19:17:04 39° E
CSL-04 Rocket 3.6 19:10:46 10° SSE 19:16:13 86° ENE 19:21:45 10° NNW
CZ-2C R/B 3.9 19:22:51 34° ENE 19:24:11 44° E 19:28:31 10° S
Cosmos 1420 Rocket 4.0 19:19:57 10° SSW 19:25:07 83° WNW 19:30:14 10° N
GPS 2-17 Rocket1 4.3 19:21:11 10° SW 19:25:12 30° SSE 19:26:34 25° SE
ATLAS CENTAUR R/B 0.8 19:23:09 10° NNW 19:26:46 71° ENE 19:27:51 41° SE
Cosmos 1844 4.1 19:21:39 10° S 19:26:57 39° ESE 19:28:11 35° ENE
Ariane Rocket 3.0 19:33:11 10° SSE 19:38:08 56° ENE 19:43:04 10° N
USA 234 3.6 19:38:09 38° ENE 19:39:17 41° NE 19:45:18 10° NNW
IRS-1A Rocket 4.3 19:34:23 10° SSE 19:40:02 53° ENE 19:45:34 10° N
Cosmos 1605 Rocket 3.9 19:34:41 10° S 19:40:56 85° E 19:47:18 10° N
Meteor 2-2 Rocket 4.5 19:36:46 10° N 19:42:42 75° W 19:48:34 10° S
SWIFT 2.4 19:43:30 10° WNW 19:47:17 70° NW 19:47:17 70° NW
Mugunghwa Rocket 4.3 19:50:16 10° NW 19:56:38 49° NNE 19:57:06 49° NNE
Cosmos 1869 4.5 19:58:27 22° NW 20:00:29 40° W 20:04:09 10° SSW
Intelsat 5-3 Rocket 3.9 19:52:56 10° SW 20:03:02 44° SSE 20:03:31 43° SSE
Cosmos 2151 4.4 19:59:20 10° SSW 20:03:10 35° W 20:04:46 26° NW
Cosmos 2123 Rocket 4.2 20:08:58 10° NNW 20:15:09 67° W 20:21:17 10° S
Cosmos 1844 Rocket 3.7 20:13:03 10° SW 20:18:15 42° WNW 20:19:39 35° NW
Cosmos 1603 4.2 20:16:24 10° NNW 20:28:59 - S 20:21:06 54° WNW
Ariane H10+ 3.9 20:21:28 10° SW 20:22:56 20° SSW 20:22:56 20° SSW
H-2A R/B 4.3 20:36:00 10° WSW 21:22:21 54° NW 21:22:21 54° NW
